User: anonymous   Login
Location: Irma
(52.9170°N, 111.2330°W)
Time: 03:03:41
(UTC-07:00)
Language:

Cosmos 2279 Rocket - Orbit

View from above orbital plane
View from above orbital plane
View from above satellite
View from above satellite

Ground track
Ground track

The orbit data is extracted from the following two-line orbital elements,

1 23093U 94024B   15029.16107671 -.00000069  00000-0 -84051-4 0  9687
2 23093 082.9455 041.5166 0008694 282.1414 077.8770 13.77641236511636
Epoch (UTC): 29 January 2015 03:51:57
Eccentricity: 0.0008694
inclination: 82.9455°
perigee height: 966 km
apogee height: 978 km
right ascension of ascending node: 41.5166°
argument of perigee: 282.1414°
revolutions per day: 13.77641236
mean anomaly at epoch: 77.8770°
orbit number at epoch: 51163

The dashed part of the orbit path shows where the satellite is in the earth's shadow,  

DLR